Torna al catalogo

CZ-6A DEB

AttivoPO
NORAD 55208·DEBRIS·🇨🇳 China

Lanciato Nov 11, 2022 da Taiyuan Satellite Launch Center

Loading…

Prossimi Passaggi (prossime 24 ore)

TLE

AggiornatoSource: Space-Track

Epoca: Sep 14, 2026, 04:19 UTC

1 55208U 22151VZ  26257.17997189  .00026022  00000-0  21990-2 0  9999
2 55208  98.6232 341.8831 0038122 322.6228  37.2340 14.97495053198814

Traccia CZ-6A DEB in tempo reale con AllMySat

Download on the App Store